Decatur, AL

5:04 PM CDT on August 16, 2017 (GMT -0500)
Pryor Regional

Weather History for KDCU - October, 2013

Change the Weather History Date:

Wednesday, October 16, 2013

  Actual Average Record
Temperature  
Mean Temperature 64 °F -  
Max Temperature 68 °F 74 °F 86 °F (1953)
Min Temperature 63 °F 46 °F 31 °F (1978)
Growing Degree Days 14 (Base 50)    
Moisture  
Dew Point 63 °F    
Average Humidity 91    
Maximum Humidity 100    
Minimum Humidity 81    
Precipitation  
Precipitation 0.55 in - - ()
Sea Level Pressure  
Sea Level Pressure 29.98 in    
Wind  
Wind Speed 5 mph (South)    
Max Wind Speed 12 mph    
Max Gust Speed -    
Visibility 7 miles    
Events Rain    
Averages and records for this station are not official NWS values.
T = Trace of Precipitation, MM = Missing Value Source: NWS Daily Summary

Daily Weather History Graph

Daily Weather History Graph

Search for Another Location

Airport or City:

Trip Planner

Search our weather history database for the weather conditions in past years. The results will help you decide how hot, cold, wet, or windy it might be!

Date:

Astronomy

Oct. 16, 2013 Rise Set
Actual Time 6:54 AM CDT 6:11 PM CDT
Civil Twilight 6:29 AM CDT 6:36 PM CDT
Nautical Twilight 5:59 AM CDT 7:06 PM CDT
Astronomical Twilight 5:30 AM CDT 7:35 PM CDT
Moon 4:47 PM CDT 4:27 AM CDT
Length of Visible Light 12h 07m
Length of Day
11h 17m
Waxing Gibbous, 94% of the Moon is Illuminated
Oct 16
Waxing Gibbous
Oct 18
Full
Oct 26
Last Quarter
Nov 3
New
Nov 9
First Quarter

Hourly Weather History & Observations

Time (CDT) Temp. Dew Point Humidity Pressure Visibility Wind Dir Wind Speed Gust Speed Precip Events Conditions
12:53 AM 64.9 °F 59.0 °F 81% 30.01 in 10.0 mi SE 3.5 mph - N/A   Overcast
1:53 AM 64.9 °F 59.0 °F 81% 30.00 in 10.0 mi SE 4.6 mph - N/A   Overcast
2:53 AM 64.0 °F 59.0 °F 84% 29.99 in 10.0 mi East 4.6 mph - N/A   Overcast
3:53 AM 63.0 °F 59.0 °F 87% 29.99 in 10.0 mi East 3.5 mph - N/A   Overcast
4:53 AM 63.0 °F 59.0 °F 87% 29.99 in 10.0 mi Calm Calm - N/A   Overcast
5:53 AM 63.0 °F 59.0 °F 87% 30.00 in 10.0 mi ESE 4.6 mph - N/A   Overcast
6:53 AM 63.0 °F 59.0 °F 87% 30.02 in 10.0 mi Calm Calm - N/A   Overcast
7:53 AM 63.0 °F 59.0 °F 87% 30.03 in 10.0 mi ESE 3.5 mph - N/A   Overcast
8:53 AM 64.0 °F 59.0 °F 84% 30.05 in 10.0 mi ENE 4.6 mph - N/A   Overcast
9:53 AM 64.9 °F 60.1 °F 84% 30.04 in 10.0 mi SE 4.6 mph - 0.00 in   Overcast
10:07 AM 64.4 °F 60.8 °F 88% 30.04 in 7.0 mi SE 5.8 mph - 0.00 in Rain Light Rain
10:20 AM 64.4 °F 60.8 °F 88% 30.04 in 8.0 mi ESE 5.8 mph - 0.00 in   Overcast
10:28 AM 66.2 °F 60.8 °F 83% 30.04 in 10.0 mi ESE 4.6 mph - 0.00 in   Overcast
10:53 AM 66.0 °F 60.1 °F 81% 30.02 in 8.0 mi SSE 5.8 mph - 0.00 in Rain Light Rain
11:53 AM 66.9 °F 62.1 °F 84% 30.01 in 7.0 mi SE 8.1 mph - 0.00 in Rain Light Rain
12:00 PM 66.2 °F 60.8 °F 83% 30.02 in 9.0 mi SSE 8.1 mph - 0.00 in Rain Light Rain
12:53 PM 66.9 °F 63.0 °F 87% 29.99 in 4.0 mi South 6.9 mph - 0.00 in Rain Light Rain
1:11 PM 66.2 °F 62.6 °F 88% 29.99 in 2.0 mi SSE 6.9 mph - 0.04 in Rain Rain
1:14 PM 66.2 °F 62.6 °F 88% 29.99 in 1.8 mi SSE 6.9 mph - 0.04 in Rain Rain
1:43 PM 64.4 °F 62.6 °F 94% 29.97 in 1.2 mi SSE 6.9 mph - 0.13 in Rain Heavy Rain
1:53 PM 64.9 °F 63.0 °F 93% 29.96 in 1.0 mi SE 9.2 mph - 0.22 in Rain Heavy Rain
2:21 PM 64.4 °F 64.4 °F 100% 29.96 in 1.2 mi SE 8.1 mph - 0.08 in Rain Heavy Rain
2:45 PM 66.2 °F 64.4 °F 94% 29.95 in 2.0 mi SE 8.1 mph - 0.13 in Rain Rain
2:53 PM 66.0 °F 64.0 °F 93% 29.94 in 1.2 mi SSE 9.2 mph - 0.16 in Rain Heavy Rain
3:17 PM 66.2 °F 64.4 °F 94% 29.95 in 2.0 mi SSE 9.2 mph - 0.05 in Rain Rain
3:32 PM 66.2 °F 64.4 °F 94% 29.95 in 4.0 mi SSE 8.1 mph - 0.05 in Rain Light Rain
3:53 PM 66.9 °F 64.9 °F 93% 29.93 in 6.0 mi SSE 8.1 mph - 0.06 in   Overcast
4:40 PM 66.2 °F 64.4 °F 94% 29.94 in 8.0 mi South 11.5 mph - 0.01 in Rain Light Rain
4:53 PM 66.9 °F 64.9 °F 93% 29.93 in 8.0 mi South 9.2 mph - 0.01 in Rain Light Rain
5:53 PM 66.9 °F 64.9 °F 93% 29.93 in 7.0 mi South 8.1 mph - 0.00 in Rain Light Rain
6:03 PM 66.2 °F 64.4 °F 94% 29.94 in 7.0 mi SSW 10.4 mph - 0.00 in Rain Light Rain
6:22 PM 66.2 °F 64.4 °F 94% 29.94 in 6.0 mi SSW 9.2 mph - 0.01 in Rain Light Rain
6:53 PM 66.9 °F 64.9 °F 93% 29.94 in 6.0 mi South 8.1 mph - 0.02 in Rain Light Rain
7:12 PM 66.2 °F 66.2 °F 100% 29.95 in 5.0 mi SSW 8.1 mph - 0.01 in Rain Light Rain
7:53 PM 66.9 °F 66.0 °F 97% 29.94 in 7.0 mi SSW 4.6 mph - 0.02 in Rain Light Rain
8:16 PM 66.2 °F 64.4 °F 94% 29.95 in 10.0 mi SW 4.6 mph - 0.00 in   Overcast
8:21 PM 66.2 °F 64.4 °F 94% 29.95 in 10.0 mi WSW 3.5 mph - 0.00 in   Overcast
8:38 PM 66.2 °F 64.4 °F 94% 29.96 in 10.0 mi West 5.8 mph - 0.00 in Rain Light Rain
8:53 PM 66.9 °F 64.9 °F 93% 29.95 in 10.0 mi West 3.5 mph - 0.00 in Rain Light Rain
9:14 PM 66.2 °F 64.4 °F 94% 29.96 in 10.0 mi West 4.6 mph - 0.00 in   Overcast
9:33 PM 66.2 °F 64.4 °F 94% 29.97 in 10.0 mi West 3.5 mph - 0.00 in   Overcast
9:45 PM 66.2 °F 64.4 °F 94% 29.97 in 10.0 mi WSW 3.5 mph - 0.00 in   Overcast
9:53 PM 66.9 °F 64.9 °F 93% 29.96 in 9.0 mi West 3.5 mph - 0.00 in   Overcast
10:53 PM 66.9 °F 64.9 °F 93% 29.95 in 7.0 mi Calm Calm - N/A   Overcast
11:11 PM 66.2 °F 64.4 °F 94% 29.96 in 10.0 mi WNW 3.5 mph - 0.01 in   Overcast
11:28 PM 66.2 °F 64.4 °F 94% 29.96 in 2.5 mi WNW 3.5 mph - 0.02 in Rain Light Rain
11:36 PM 66.2 °F 64.4 °F 94% 29.95 in 2.5 mi WNW 3.5 mph - 0.03 in Rain Light Rain
11:53 PM 66.0 °F 64.0 °F 93% 29.94 in 3.0 mi NW 3.5 mph - 0.06 in Rain Light Rain